This is the latest recevied weather packets stored in our database for station/object KD9JB-1. If no packets are shown the sender has not sent any weather packets the latest 10 day(s).
| Time | Temp. | Humidity | Pressure | Rain* | Wind** | Luminosity | Snow |
|---|---|---|---|---|---|---|---|
| 1778002596 | 16.11° C | 92% | 1007.9 hPa | 1.27 mm | - | - | - |
| 1778002296 | 16.11° C | 92% | 1007.9 hPa | 1.02 mm | - | - | - |
| 1778001996 | 16.11° C | 92% | 1007.9 hPa | 1.27 mm | - | - | - |
| 1778001696 | 16.11° C | 92% | 1008 hPa | 1.02 mm | - | - | - |
| 1778001396 | 16.11° C | 92% | 1008.1 hPa | 1.27 mm | - | - | - |
| 1778001096 | 16.11° C | 92% | 1008.2 hPa | 1.02 mm | - | - | - |
| 1778000796 | 16.11° C | 92% | 1008.1 hPa | 1.02 mm | - | - | - |
| 1778000496 | 16.11° C | 92% | 1008.2 hPa | 1.27 mm | - | - | - |
| 1778000196 | 16.11° C | 92% | 1008.2 hPa | 2.03 mm | - | - | - |
| 1777999896 | 15.56° C | 92% | 1008.1 hPa | 2.29 mm | - | - | - |
| 1777999596 | 15.56° C | 92% | 1008 hPa | 2.79 mm | - | - | - |
| 1777999296 | 15.56° C | 92% | 1008 hPa | 3.3 mm | - | - | - |
| 1777998996 | 15.56° C | 92% | 1008 hPa | 3.81 mm | - | - | - |
| 1777998696 | 15.56° C | 92% | 1008 hPa | 4.83 mm | - | - | - |
| 1777998396 | 15.56° C | 91% | 1008.4 hPa | 5.84 mm | - | - | - |
| 1777998096 | 15° C | 91% | 1008.5 hPa | 5.84 mm | - | - | - |
| 1777997796 | 15° C | 91% | 1008.6 hPa | 5.59 mm | - | - | - |
| 1777997496 | 15° C | 90% | 1008.8 hPa | 5.59 mm | - | - | - |
| 1777997196 | 15° C | 90% | 1008.9 hPa | 5.33 mm | - | - | - |
| 1777996896 | 15° C | 90% | 1009.1 hPa | 5.08 mm | - | - | - |
| 1777996596 | 15° C | 89% | 1009.2 hPa | 4.32 mm | - | - | - |
| 1777996296 | 15° C | 88% | 1009.3 hPa | 4.06 mm | - | - | - |
| 1777995996 | 15° C | 87% | 1009.3 hPa | 3.56 mm | - | - | - |
| 1777995696 | 15.56° C | 84% | 1009.4 hPa | 2.79 mm | - | - | - |
| 1777995396 | 16.11° C | 81% | 1009.3 hPa | 2.29 mm | - | - | - |
* Rain latest hour (hover to see other rain measurements)
** Current wind speed in m/s (hover to see current wind gust speed)